Terminal Aerodrome Forecast
Issued by NWS Caribou, ME

Home | Current Version | Previous Version | Text Only | Print | Product List | Glossary On
Versions: 1 2 3 4 5 6 7 8 9 10 11 12 13 14 15 16 17 18 19
000
FTUS41 KCAR 202300
TAFCAR
TAF
KCAR 202320Z 2100/2124 01005KT P6SM BKN060
     FM210200 33003KT P6SM SCT250=

USA.gov is the U.S. government's official web portal to all federal, state and local government web resources and services.